Regional Weather Roundup
Issued by NWS

Home | Current Version | Previous Version | Text Only | Print | Product List | Glossary On
Versions: 1 2 3 4 5 6 7 8 9 10 11 12 13 14 15 16 17 18 19 20 21 22 23 24 25 26 27 28 29 30 31 32 33 34 35 36 37 38 39 40 41 42 43 44 45 46 47 48 49 50
813
ASUS43 KMPX 281101
RWRMN
WEATHER ROUNDUP FOR MINNESOTA
NATIONAL WEATHER SERVICE TWIN CITIES/CHANHASSEN MN
600 AM CDT FRI JUL 28 2017


NOTE: "FAIR" INDICATES FEW OR NO CLOUDS BELOW 12,000 FEET WITH NO
SIGNIFICANT WEATHER AND/OR OBSTRUCTIONS TO VISIBILITY. N/A MEANS
CURRENT SKY AND/OR WEATHER CONDITIONS ARE NOT AVAILABLE.

MNZ060>063-068>070-281200-
   Twin Cities Metro

CITY           SKY/WX    TMP DP  RH WIND       PRES   REMARKS
TWIN CITIES    PTCLDY    66  59  78 N3        30.08R
ST PAUL        CLEAR     64  60  87 NW3       30.08R
CRYSTAL        CLEAR     60  57  89 CALM      30.07R
BLAINE         CLEAR     61  59  94 CALM      30.08S
LAKEVILLE      CLEAR     57  57 100 CALM      30.08R
EDEN PRAIRIE   CLEAR     66  61  84 NE5       30.07R
SOUTH ST PAUL  CLEAR     65  59  81 CALM      30.07S
LAKE ELMO      FAIR      59  59 100 CALM      30.09S
$$
MNZ001>005-007-008-013>017-022>024-027-028-281200-
   Northwest Minnesota

CITY           SKY/WX    TMP DP  RH WIND       PRES   REMARKS
BEMIDJI        CLEAR     50  49  97 W3        30.12R
HALLOCK        CLEAR     55  55 100 SE7       30.08R
ROSEAU         CLEAR     55  50  82 CALM      30.10R
WARROAD        CLEAR     57  54  88 CALM      30.10R
THIEF RVR FALL CLEAR     59  57  94 CALM      30.11R FOG
CROOKSTON      CLEAR     61  57  88 SE5       30.09S
FOSSTON        CLEAR     54  52  94 CALM      30.12R FOG
DETROIT LAKES  PTCLDY    63  57  82 CALM      30.13R
MOORHEAD       CLEAR     57  55  94 CALM      30.09S
PARK RAPIDS    CLEAR     58  55  90 NE6       30.11S
MAHNOMEN       FAIR      58  55  91 E5        30.11R
$$
MNZ006-009>011-018-025>026-281200-
   North Central Minnesota

CITY           SKY/WX    TMP DP  RH WIND       PRES   REMARKS
BAUDETTE       CLEAR     55  55 100 SW3       30.10R
FLAG ISLAND    CLEAR     68  64  88 CALM      30.08R
INTL FALLS     PTCLDY    51  50  96 CALM      30.11R FOG
WASKISH        PTCLDY    52  52 100 CALM      30.11R FOG
BIG FORK       CLEAR     52  50  93 CALM      30.12S FOG
LONGVILLE      PTCLDY    54  54 100 CALM      30.12R FOG
GRAND RAPIDS   FOG       54  53  97 CALM      30.15R VSB 3/4
CRANE LAKE     CLEAR     48  48 100 CALM      30.13S
ORR            PTCLDY    54  52  94 CALM      30.11S
COOK             N/A     50  50 100 CALM      30.14R
WALKER         FOG       53  52  99 CALM      30.12R VSB<1/4
$$
MNZ012-019>021-037-281200-
   Northeast Minnesota

CITY           SKY/WX    TMP DP  RH WIND       PRES   REMARKS
DULUTH         CLEAR     53  51  93 CALM      30.13R
ELY            CLEAR     50  50 100 CALM      30.14R
HIBBING        FOG       47  47 100 CALM      30.14R VSB 1/2
EVELETH        FOG       46  44  90 CALM      30.15R VSB 3/4
DULUTH HARBOR  CLEAR     61  57  88 CALM      30.13R
SILVER BAY     CLEAR     52  50  93 CALM      30.12R FOG
GRAND MARAIS     N/A     57  54  89 CALM      30.11R
G MARAIS ARPRT CLEAR     50  46  87 CALM      30.15R
$$
MNZ029>031-032-039>041-046>048-054>057-064-281200-
   West Central Minnesota

CITY           SKY/WX    TMP DP  RH WIND       PRES   REMARKS
FERGUS FALLS   CLEAR     64  63  94 E6        30.09R
WHEATON        CLOUDY    61  57  88 CALM      30.10S FOG
MORRIS         PTCLDY    61  59  94 CALM      30.09R
ALEXANDRIA     CLEAR     63  60  90 SE3       30.12R
ELBOW LAKE     FAIR      65  63  91 CALM      30.10S
WADENA         FOG       54  54 100 CALM      30.11S VSB 3/4
GLENWOOD       CLEAR     61  61 100 NE3       30.11S
APPLETON       CLOUDY    63  57  82 CALM      30.08S
BENSON         FOG       57  55  94 CALM      30.11R VSB 1/4
ORTONVILLE       N/A     64  63  94 CALM        N/A
MADISON        CLOUDY    64  64 100 CALM      30.09R
WILLMAR        FAIR      64  63  94 CALM      30.10S
$$
MNZ033>034-036-042>043-049>051-058-059-281200-
   Central Minnesota

CITY           SKY/WX    TMP DP  RH WIND       PRES   REMARKS
ST CLOUD       CLEAR     57  57 100 CALM      30.10R
SAUK CENTRE    FOG       58  58 100 CALM      30.11S VSB 1/4
PAYNESVILLE    CLEAR     57  56  97 CALM      30.11R
AITKIN         PTCLDY    52  48  87 CALM      30.11R FOG
PINE RIVER     PTCLDY    55  55 100 CALM      30.15R FOG
BRAINERD       CLEAR     57  56  96 CALM      30.12R
STAPLES        CLEAR     54  54 100 CALM      30.11S FOG
LONG PRAIRIE   FAIR      59  59 100 CALM      30.11S FOG
LITTLE FALLS   CLEAR     55  54  94 CALM      30.11R FOG
LITCHFIELD     CLEAR     64  63  94 CALM      30.10S
BUFFALO        CLEAR     60  57  88 CALM      30.11R
MAPLE LAKE     CLEAR     62  61  97 CALM      30.10S
HUTCHINSON     CLEAR     61  60  96 CALM      30.10R
$$
MNZ037-044-045-052-053-281200-
   East Central Minnesota

CITY           SKY/WX    TMP DP  RH WIND       PRES   REMARKS
PRINCETON      FOG       57  57 100 CALM      30.10S VSB 3/4
MORA           CLEAR     55  55 100 CALM      30.12R
CAMBRIDGE      CLEAR     57  54  88 CALM      30.09R
RUSH CITY      PTCLDY    58  57  96 CALM      30.10S
MOOSE LAKE     PTCLDY    55  54  94 CALM      30.11S
HINCKLEY       FAIR      55  55 100 N3        30.11R
CLOQUET        CLEAR     52  50  93 CALM      30.13R
MCGREGOR       CLEAR     54  54 100 CALM      30.14R
$$
MNZ071>073-080-081-089-090-097-098-281200-
   Southwest Minnesota

CITY           SKY/WX    TMP DP  RH WIND       PRES   REMARKS
MONTEVIDEO     PTCLDY    61  55  82 CALM      30.09S
CANBY          CLOUDY    64  62  92 CALM      30.11R
MARSHALL       CLOUDY    63  61  93 NW5       30.09R
REDWOOD FALLS  CLEAR     62  60  93 CALM      30.07S
OLIVIA         PTCLDY    61  57  88 NE3       30.08S
PIPESTONE      PTCLDY    64  59  82 CALM      30.10S
WINDOM         PTCLDY    61  57  88 CALM      30.09R
WORTHINGTON    PTCLDY    59  57  93 NW3       30.10R
JACKSON        PTCLDY    59  57  94 CALM      30.09R
TRACY          PTCLDY    64  63  95 CALM      30.10R
SLAYTON        HVY RAIN  58  56  92 NW5       30.11R
$$
MNZ065>067-074>077-082>085-091>093-281200-
   South Central Minnesota

CITY           SKY/WX    TMP DP  RH WIND       PRES   REMARKS
MANKATO        PTCLDY    62  59  90 CALM      30.08R
NEW ULM        PTCLDY    63  59  88 CALM      30.08R
ST JAMES       PTCLDY    59  57  94 CALM      30.08S
FAIRMONT       MOCLDY    61  60  97 NW3       30.07S
GLENCOE        PTCLDY    62  62 100 CALM      30.08S
FARIBAULT      PTCLDY    61  61 100 CALM      30.08R FOG
OWATONNA         N/A     61  59  94 CALM      30.08R FOG
WASECA         PTCLDY    59  57  94 CALM      30.09R FOG
ALBERT LEA     MOCLDY    63  61  94 CALM      30.07R
$$
MNZ078>079-086>088-094>096-281200-
   Southeast Minnesota

CITY           SKY/WX    TMP DP  RH WIND       PRES   REMARKS
ROCHESTER      CLEAR     61  60  97 N6        30.08R
RED WING       CLEAR     61  57  88 CALM      30.06S
STANTON        FOG       59  57  94 CALM      30.07R VSB 1/2
DODGE CENTER   CLEAR     59  57  94 CALM      30.08R
WINONA         CLEAR     61  61 100 NW3       30.06R
AUSTIN         PTCLDY    61  57  88 CALM      30.07R
PRESTON        CLEAR     62  58  87 CALM      30.07R
$$
ABBREVIATIONS USED IN REMARKS
   TC - TEMPERATURES IN CELSIUS
  WCI - WIND CHILL INDEX
   HX - HEAT INDEX
  VSB - VISIBILITY
$$




USA.gov is the U.S. government's official web portal to all federal, state and local government web resources and services.